Weather History for Hazen, ND

Change the Weather History Date:

Monday, May 6, 2013

  Actual Average (KN60) Record (KN60)
Temperature  
Mean Temperature 50 °F -  
Max Temperature 71 °F 58 °F 75 °F (2006)
Min Temperature 28 °F 35 °F 21 °F (2002)
Degree Days  
Heating Degree Days 16    
Moisture  
Dew Point 28 °F    
Average Humidity 46    
Maximum Humidity 86    
Minimum Humidity 17    
Precipitation  
Precipitation 0.00 in - - ()
Sea Level Pressure  
Sea Level Pressure 30.07 in    
Wind  
Wind Speed 4 mph (South)    
Max Wind Speed 10 mph    
Max Gust Speed -    
Visibility 10 miles    
Events      
Averages and records for this station are not official NWS values.
T = Trace of Precipitation, MM = Missing Value Source: NWS Daily Summary

Daily Weather History Graph

Daily Weather History Graph

Search for Another Location

Airport:

Trip Planner

Search our weather history database for the weather conditions in past years. The results will help you decide how hot, cold, wet, or windy it might be!

Date:

Astronomy

May. 06, 2013 Rise Set
Actual Time 6:21 AM CDT 9:04 PM CDT
Civil Twilight 5:46 AM CDT 9:39 PM CDT
Nautical Twilight 5:02 AM CDT 10:24 PM CDT
Astronomical Twilight 4:10 AM CDT 11:16 PM CDT
Moon 4:38 AM CDT (5/6) 5:56 PM CDT (5/6)
Length of Visible Light 15h 52m
Length of Day
14h 42m
Waning Crescent, 11% of the Moon is Illuminated
May 6
Waning Crescent
May 9
New
May 17
First Quarter
May 24
Full
May 31
Last Quarter

Hourly Weather History & Observations

Time (CDT) Temp. Windchill Dew Point Humidity Pressure Visibility Wind Dir Wind Speed Gust Speed Precip Events Conditions
12:15 AM 44.6 °F 40.2 °F 28.4 °F 53% 30.13 in 10.0 mi SSE 8.1 mph - N/A   Partly Cloudy
12:35 AM 41.0 °F 36.4 °F 28.4 °F 61% 30.13 in 10.0 mi South 6.9 mph - N/A   Partly Cloudy
12:55 AM 42.8 °F - 28.4 °F 57% 30.13 in 10.0 mi Calm Calm - N/A   Partly Cloudy
1:15 AM 42.8 °F - 26.6 °F 53% 30.13 in 10.0 mi Calm Calm - N/A   Partly Cloudy
1:35 AM 39.2 °F 35.9 °F 28.4 °F 65% 30.13 in 10.0 mi West 4.6 mph - N/A   Partly Cloudy
1:55 AM 37.4 °F 33.8 °F 26.6 °F 65% 30.13 in 10.0 mi WNW 4.6 mph - N/A   Partly Cloudy
2:15 AM 35.6 °F - 26.6 °F 70% 30.13 in 10.0 mi Calm Calm - N/A   Partly Cloudy
2:35 AM 32.0 °F - 26.6 °F 80% 30.13 in 10.0 mi Calm Calm - N/A   Scattered Clouds
2:55 AM 32.0 °F - 26.6 °F 80% 30.13 in 10.0 mi Calm Calm - N/A   Mostly Cloudy
3:15 AM 32.0 °F - 26.6 °F 80% 30.13 in 10.0 mi Calm Calm - N/A   Mostly Cloudy
3:35 AM 32.0 °F - 26.6 °F 80% 30.12 in 10.0 mi Calm Calm - N/A   Scattered Clouds
3:55 AM 30.2 °F 26.7 °F 26.6 °F 86% 30.12 in 10.0 mi WSW 3.5 mph - N/A   Mostly Cloudy
4:15 AM 32.0 °F 28.7 °F 24.8 °F 75% 30.12 in 10.0 mi SSW 3.5 mph - N/A   Scattered Clouds
4:35 AM 28.4 °F - 24.8 °F 86% 30.12 in 10.0 mi Calm Calm - N/A   Partly Cloudy
4:55 AM 30.2 °F - 24.8 °F 80% 30.12 in 10.0 mi Calm Calm - N/A   Partly Cloudy
5:15 AM 32.0 °F 28.7 °F 24.8 °F 75% 30.12 in 10.0 mi WSW 3.5 mph - N/A   Partly Cloudy
5:35 AM 28.4 °F - 24.8 °F 86% 30.12 in 10.0 mi Calm Calm - N/A   Clear
5:55 AM 30.2 °F - 24.8 °F 80% 30.12 in 10.0 mi Calm Calm - N/A   Clear
6:15 AM 30.2 °F 26.7 °F 24.8 °F 80% 30.12 in 10.0 mi SW 3.5 mph - N/A   Clear
6:35 AM 28.4 °F 23.3 °F 24.8 °F 86% 30.12 in 10.0 mi WSW 4.6 mph - N/A   Clear
6:55 AM 32.0 °F 28.7 °F 24.8 °F 75% 30.12 in 10.0 mi WSW 3.5 mph - N/A   Clear
7:15 AM 33.8 °F 28.6 °F 26.6 °F 75% 30.12 in 10.0 mi SW 5.8 mph - N/A   Clear
7:35 AM 35.6 °F 31.7 °F 28.4 °F 75% 30.12 in 10.0 mi WSW 4.6 mph - N/A   Clear
7:55 AM 37.4 °F 34.9 °F 28.4 °F 70% 30.12 in 10.0 mi WSW 3.5 mph - N/A   Clear
8:35 AM 42.8 °F 41.1 °F 28.4 °F 57% 30.12 in 10.0 mi WSW 3.5 mph - N/A   Clear
8:55 AM 46.4 °F 44.3 °F 28.4 °F 50% 30.12 in 10.0 mi WSW 4.6 mph - N/A   Clear
9:15 AM 48.2 °F - 28.4 °F 46% 30.12 in 10.0 mi WSW 5.8 mph - N/A   Clear
9:35 AM 50.0 °F - 28.4 °F 43% 30.12 in 10.0 mi WSW 5.8 mph - N/A   Clear
9:55 AM 53.6 °F - 28.4 °F 38% 30.11 in 10.0 mi WSW 4.6 mph - N/A   Clear
10:15 AM 55.4 °F - 28.4 °F 36% 30.11 in 10.0 mi WSW 4.6 mph - N/A   Clear
10:35 AM 59.0 °F - 30.2 °F 34% 30.11 in 10.0 mi West 4.6 mph - N/A   Clear
10:55 AM 62.6 °F - 28.4 °F 27% 30.10 in 10.0 mi WNW 3.5 mph - N/A   Clear
11:15 AM 62.6 °F - 28.4 °F 27% 30.10 in 10.0 mi SW 5.8 mph - N/A   Clear
11:35 AM 64.4 °F - 28.4 °F 26% 30.10 in 10.0 mi North 3.5 mph - N/A   Clear
11:55 AM 64.4 °F - 28.4 °F 26% 30.10 in 10.0 mi ENE 8.1 mph - N/A   Clear
12:15 PM 66.2 °F - 28.4 °F 24% 30.10 in 10.0 mi NW 3.5 mph - N/A   Clear
12:35 PM 66.2 °F - 28.4 °F 24% 30.09 in 10.0 mi NNW 4.6 mph - N/A   Clear
12:55 PM 66.2 °F - 28.4 °F 24% 30.09 in 10.0 mi North 5.8 mph - N/A   Clear
1:15 PM 66.2 °F - 28.4 °F 24% 30.08 in 10.0 mi SSE 3.5 mph - N/A   Clear
1:35 PM 66.2 °F - 28.4 °F 24% 30.08 in 10.0 mi SSE 4.6 mph - N/A   Clear
1:55 PM 68.0 °F - 28.4 °F 23% 30.07 in 10.0 mi East 5.8 mph - N/A   Clear
2:15 PM 68.0 °F - 28.4 °F 23% 30.06 in 10.0 mi NE 10.4 mph - N/A   Clear
2:35 PM 68.0 °F - 26.6 °F 21% 30.05 in 10.0 mi NNW 3.5 mph - N/A   Clear
2:55 PM 68.0 °F - 26.6 °F 21% 30.05 in 10.0 mi East 3.5 mph - N/A   Clear
3:15 PM 69.8 °F - 28.4 °F 21% 30.05 in 10.0 mi East 8.1 mph - N/A   Clear
3:35 PM 68.0 °F - 26.6 °F 21% 30.04 in 10.0 mi West 4.6 mph - N/A   Clear
3:55 PM 69.8 °F - 26.6 °F 20% 30.03 in 10.0 mi ENE 8.1 mph - N/A   Clear
4:15 PM 71.6 °F - 26.6 °F 19% 30.03 in 10.0 mi East 3.5 mph - N/A   Clear
4:35 PM 71.6 °F - 26.6 °F 19% 30.02 in 10.0 mi NE 8.1 mph - N/A   Clear
4:55 PM 69.8 °F - 24.8 °F 18% 30.01 in 10.0 mi ENE 6.9 mph - N/A   Clear
5:15 PM 71.6 °F - 26.6 °F 19% 30.01 in 10.0 mi NNE 6.9 mph - N/A   Clear
5:55 PM 71.6 °F - 24.8 °F 17% 30.00 in 10.0 mi Calm Calm - N/A   Clear
6:15 PM 69.8 °F - 24.8 °F 18% 30.00 in 10.0 mi Calm Calm - N/A   Clear
6:35 PM 71.6 °F - 28.4 °F 20% 29.99 in 10.0 mi East 8.1 mph - N/A   Clear
6:55 PM 69.8 °F - 28.4 °F 21% 29.99 in 10.0 mi SSE 6.9 mph - N/A   Clear
7:15 PM 69.8 °F - 28.4 °F 21% 29.99 in 10.0 mi ESE 5.8 mph - N/A   Clear
7:35 PM 68.0 °F - 26.6 °F 21% 29.99 in 10.0 mi Calm Calm - N/A   Clear
7:55 PM 68.0 °F - 28.4 °F 23% 29.99 in 7.0 mi East 3.5 mph - N/A   Clear
8:15 PM 66.2 °F - 28.4 °F 24% 29.98 in 9.0 mi ESE 5.8 mph - N/A   Clear
8:35 PM 64.4 °F - 32.0 °F 30% 29.98 in 8.0 mi ESE 4.6 mph - N/A   Clear
8:55 PM 57.2 °F - 32.0 °F 38% 29.98 in 10.0 mi ESE 4.6 mph - N/A   Clear
9:15 PM 53.6 °F - 32.0 °F 44% 29.98 in 10.0 mi SE 5.8 mph - N/A   Clear
9:35 PM 51.8 °F - 32.0 °F 47% 29.99 in 9.0 mi SE 8.1 mph - N/A   Clear
9:55 PM 53.6 °F - 30.2 °F 41% 29.99 in 10.0 mi SE 9.2 mph - N/A   Clear
10:15 PM 50.0 °F - 32.0 °F 50% 30.00 in 10.0 mi SE 8.1 mph - N/A   Clear
10:35 PM 50.0 °F - 32.0 °F 50% 30.00 in 10.0 mi SSE 8.1 mph - N/A   Clear
10:55 PM 48.2 °F - 32.0 °F 54% 30.00 in 10.0 mi SSE 9.2 mph - N/A   Partly Cloudy
11:15 PM 50.0 °F - 28.4 °F 43% 30.01 in 10.0 mi SSE 8.1 mph - N/A   Partly Cloudy
11:35 PM 44.6 °F - 30.2 °F 57% 30.00 in 10.0 mi Calm Calm - N/A   Clear
11:55 PM 42.8 °F - 30.2 °F 61% 30.00 in 10.0 mi Calm Calm - N/A   Clear